Location: Bittelbronn
(48.4454°N, 8.5870°E)
Time: 00:51:43
(UTC+00:00)

Meteor 2-5 Rocket - Pass Details

Date: 11 August 2024
Orbit: 833 x 910 km, 81.2° (Epoch: 07 September)

Event Time Altitude Azimuth Distance (km) Brightness Sun altitude
Rises 02:15:46 0° 348° (NNW) 3,456 7.4 -16.6°
Reaches altitude 10° 02:18:11 10° 350° (N) 2,526 6.7 -16.4°
Maximum altitude 02:23:57 83° 78° (ENE) 896 3.9 -15.7°
Drops below altitude 10° 02:29:48 10° 167° (SSE) 2,560 5.9 -15.0°
Sets 02:32:16 0° 168° (SSE) 3,505 6.6 -14.7°
